Weather History for Baton Rouge, LA

Change the Weather History Date:

Monday, March 5, 2012

  Actual Average Record
Temperature  
Mean Temperature 61 °F 59 °F  
Max Temperature 76 °F 70 °F 86 °F (1905)
Min Temperature 45 °F 48 °F 24 °F (2002)
Degree Days  
Heating Degree Days 4 7  
Month to date heating degree days 23 37  
Since 1 July heating degree days 1102 1372  
Cooling Degree Days 0 1  
Month to date cooling degree days 24 5  
Year to date cooling degree days 103 36  
Growing Degree Days 10 (Base 50)    
Moisture  
Dew Point 42 °F    
Average Humidity 58    
Maximum Humidity 93    
Minimum Humidity 23    
Precipitation  
Precipitation 0.00 in 0.15 in 2.56 in (1948)
Month to date precipitation 0.31 0.78  
Year to date precipitation 13.62 11.54  
Snow  
Snow 0.00 in - - ()
Month to date snowfall 0.0  
Since 1 July snowfall 0.0  
Snow Depth 0.00 in    
Sea Level Pressure  
Sea Level Pressure 30.33 in    
Wind  
Wind Speed 3 mph (West)    
Max Wind Speed 16 mph    
Max Gust Speed 21 mph    
Visibility 10 miles    
Events      
T = Trace of Precipitation, MM = Missing Value Source: NWS Daily Summary

Daily Weather History Graph

Daily Weather History Graph

Search for Another Location

Airport:

Trip Planner

Search our weather history database for the weather conditions in past years. The results will help you decide how hot, cold, wet, or windy it might be!

Date:

Astronomy

Mar. 05, 2012 Rise Set
Actual Time 6:25 AM CST 6:06 PM CST
Civil Twilight 6:01 AM CST 6:30 PM CST
Nautical Twilight 5:33 AM CST 6:58 PM CST
Astronomical Twilight 5:05 AM CST 7:26 PM CST
Moon 3:33 PM CST (3/5) 4:15 AM CST (3/5)
Length of Visible Light 12h 28m
Length of Day
11h 40m
Waxing Gibbous, 91% of the Moon is Illuminated
Mar 5
Waxing Gibbous
Mar 8
Full
Mar 14
Last Quarter
Mar 22
New
Mar 30
First Quarter

Hourly Weather History & Observations

Time (CST) Temp. Dew Point Humidity Pressure Visibility Wind Dir Wind Speed Gust Speed Precip Events Conditions
12:53 AM 52.0 °F 43.0 °F 71% 30.27 in 10.0 mi WSW 6.9 mph - N/A   Clear
1:53 AM 48.9 °F 43.0 °F 80% 30.27 in 10.0 mi West 4.6 mph - N/A   Clear
2:53 AM 48.9 °F 43.0 °F 80% 30.27 in 10.0 mi Calm Calm - N/A   Clear
3:53 AM 46.0 °F 44.1 °F 93% 30.28 in 10.0 mi Calm Calm - N/A   Clear
4:53 AM 46.0 °F 43.0 °F 89% 30.30 in 10.0 mi Calm Calm - N/A   Clear
5:53 AM 45.0 °F 43.0 °F 93% 30.32 in 10.0 mi Calm Calm - N/A   Clear
6:53 AM 46.0 °F 44.1 °F 93% 30.34 in 10.0 mi Calm Calm - N/A   Clear
7:53 AM 55.9 °F 48.9 °F 77% 30.36 in 10.0 mi West 4.6 mph - N/A   Unknown
8:53 AM 62.1 °F 48.9 °F 62% 30.38 in 10.0 mi WNW 8.1 mph - N/A   Unknown
9:53 AM 66.0 °F 43.0 °F 43% 30.39 in 10.0 mi West 8.1 mph - N/A   Unknown
10:53 AM 70.0 °F 36.0 °F 29% 30.39 in 10.0 mi NW 10.4 mph 20.7 mph N/A   Clear
11:53 AM 72.0 °F 37.0 °F 28% 30.38 in 10.0 mi NNW 4.6 mph - N/A   Clear
12:53 PM 73.9 °F 37.9 °F 27% 30.36 in 10.0 mi Variable 4.6 mph - N/A   Clear
1:53 PM 75.0 °F 37.9 °F 26% 30.33 in 10.0 mi Calm Calm - N/A   Unknown
2:53 PM 75.0 °F 37.0 °F 25% 30.32 in 10.0 mi SW 8.1 mph - N/A   Clear
3:53 PM 75.0 °F 36.0 °F 24% 30.31 in 10.0 mi SW 5.8 mph - N/A   Clear
4:53 PM 73.9 °F 37.9 °F 27% 30.31 in 10.0 mi WSW 5.8 mph - N/A   Clear
5:53 PM 69.1 °F 39.0 °F 33% 30.31 in 10.0 mi WNW 3.5 mph - N/A   Clear
6:53 PM 64.0 °F 42.1 °F 45% 30.32 in 10.0 mi Calm Calm - N/A   Clear
7:53 PM 59.0 °F 44.1 °F 58% 30.33 in 10.0 mi Calm Calm - N/A   Clear
8:53 PM 55.9 °F 46.0 °F 69% 30.35 in 10.0 mi ENE 4.6 mph - N/A   Clear
9:53 PM 54.0 °F 46.0 °F 75% 30.36 in 10.0 mi Calm Calm - N/A   Clear
10:53 PM 53.1 °F 46.0 °F 77% 30.35 in 10.0 mi Calm Calm - N/A   Clear
11:53 PM 51.1 °F 46.0 °F 83% 30.34 in 10.0 mi Calm Calm - N/A   Clear